Location: Arbon
(43.0005°N, 0.7472°E)
Time: 18:13:48
(UTC+00:00)

Cosmos 858 Rocket - Pass Details

Date: 07 August 2020
Orbit: 757 x 774 km, 74.0° (Epoch: 23 September)

Event Time Altitude Azimuth Distance (km) Brightness Sun altitude
Exits shadow 03:07:32 28° 207° (SSW) 1,432 5.4 -17.1°
Maximum altitude 03:10:24 78° 290° (WNW) 794 4.5 -16.7°
Drops below altitude 10° 03:15:42 10° 18° (NNE) 2,326 7.9 -16.0°
Sets 03:18:06 0° 20° (NNE) 3,255 8.9 -15.7°
